Retour au catalogue

FENGYUN 1C DEB

ActifSSO
NORAD 31411·DEBRIS·🇨🇳 China

Lancé May 10, 1999 depuis Taiyuan Satellite Launch Center

Loading…

Prochains Passages (prochaines 24 heures)

TLE

FraisSource: Space-Track

Époque: Sep 14, 2026, 15:42 UTC

1 31411U 99025BSX 26257.65419882  .00000595  00000-0  24118-3 0  9998
2 31411  98.6363 321.4993 0101854 167.0814 346.4325 14.28491963984188

Suivez FENGYUN 1C DEB en temps réel avec AllMySat

Download on the App Store